TimeCEST,TemperatureF,Dew PointF,Humidity,Sea Level PressureIn,VisibilityMPH,Wind Direction,Wind SpeedMPH,Gust SpeedMPH,PrecipitationIn,Events,Conditions,WindDirDegrees,DateUTC
12:15 AM,60.8,51.8,72,30.24,-9999.0,NE,3.5,-,N/A,,Clear,50,2013-04-24 22:15:00
12:45 AM,60.8,51.8,72,30.24,-9999.0,NE,3.5,-,N/A,,Clear,40,2013-04-24 22:45:00
1:15 AM,60.8,50.0,68,30.24,-9999.0,NE,4.6,-,N/A,,Clear,40,2013-04-24 23:15:00
1:45 AM,59.0,51.8,77,30.24,-9999.0,NNE,3.5,-,N/A,,Clear,20,2013-04-24 23:45:00
2:15 AM,59.0,51.8,77,30.24,-9999.0,NNE,4.6,-,N/A,,Clear,30,2013-04-25 00:15:00
2:45 AM,59.0,53.6,82,30.21,6.2,NNE,3.5,-,N/A,,Partly Cloudy,30,2013-04-25 00:45:00
3:15 AM,59.0,53.6,82,30.21,6.2,Calm,Calm,-,N/A,,Scattered Clouds,0,2013-04-25 01:15:00
3:45 AM,57.2,51.8,82,30.24,6.2,Calm,Calm,-,N/A,,Scattered Clouds,0,2013-04-25 01:45:00
4:45 AM,59.0,53.6,82,30.27,6.2,South,5.8,-,N/A,,Scattered Clouds,180,2013-04-25 02:45:00
5:15 AM,59.0,53.6,82,30.27,6.2,South,2.3,-,N/A,,Scattered Clouds,170,2013-04-25 03:15:00
5:45 AM,59.0,53.6,82,30.24,6.2,Calm,Calm,-,N/A,Rain,Light Rain,0,2013-04-25 03:45:00
6:15 AM,59.0,53.6,82,30.24,6.2,NE,3.5,-,N/A,Rain,Light Rain,40,2013-04-25 04:15:00
6:45 AM,59.0,53.6,82,30.24,6.2,NE,4.6,-,N/A,,Scattered Clouds,50,2013-04-25 04:45:00
7:15 AM,59.0,53.6,82,30.21,6.2,NNE,4.6,-,N/A,,Scattered Clouds,30,2013-04-25 05:15:00
7:45 AM,59.0,53.6,82,30.21,6.2,NNE,5.8,-,N/A,,Scattered Clouds,20,2013-04-25 05:45:00
8:15 AM,59.0,55.4,88,30.21,6.2,North,3.5,-,N/A,,Scattered Clouds,10,2013-04-25 06:15:00
8:45 AM,60.8,53.6,77,30.21,6.2,North,3.5,-,N/A,,Scattered Clouds,360,2013-04-25 06:45:00
9:15 AM,60.8,53.6,77,30.21,6.2,North,4.6,-,N/A,,Partly Cloudy,10,2013-04-25 07:15:00
9:45 AM,64.4,57.2,77,30.21,6.2,NNE,4.6,-,N/A,,Partly Cloudy,30,2013-04-25 07:45:00
10:15 AM,66.2,55.4,68,30.21,6.2,NE,5.8,-,N/A,,Partly Cloudy,40,2013-04-25 08:15:00
10:45 AM,68.0,55.4,64,30.24,6.2,NNW,3.5,-,N/A,,Scattered Clouds,330,2013-04-25 08:45:00
11:15 AM,69.8,55.4,60,30.24,6.2,NNW,4.6,-,N/A,,Scattered Clouds,340,2013-04-25 09:15:00
11:45 AM,73.4,57.2,57,30.24,6.2,WSW,3.5,-,N/A,,Partly Cloudy,240,2013-04-25 09:45:00
12:15 PM,75.2,51.8,44,30.24,6.2,South,10.4,-,N/A,,Scattered Clouds,180,2013-04-25 10:15:00
12:45 PM,75.2,51.8,44,30.24,6.2,South,8.1,-,N/A,,Partly Cloudy,190,2013-04-25 10:45:00
1:15 PM,77.0,51.8,41,30.24,6.2,SSW,5.8,-,N/A,,Partly Cloudy,200,2013-04-25 11:15:00
1:45 PM,77.0,51.8,41,30.21,6.2,SSW,8.1,-,N/A,,Partly Cloudy,210,2013-04-25 11:45:00
2:15 PM,77.0,50.0,39,30.21,6.2,SSW,9.2,-,N/A,,Partly Cloudy,210,2013-04-25 12:15:00
2:45 PM,77.0,50.0,39,30.21,6.2,SSW,6.9,-,N/A,,Partly Cloudy,210,2013-04-25 12:45:00
3:15 PM,77.0,48.2,36,30.18,6.2,SW,5.8,-,N/A,,Mostly Cloudy,230,2013-04-25 13:15:00
3:45 PM,78.8,50.0,36,30.18,6.2,SW,5.8,-,N/A,,Partly Cloudy,220,2013-04-25 13:45:00
4:15 PM,77.0,51.8,41,30.18,6.2,North,6.9,-,N/A,,Partly Cloudy,360,2013-04-25 14:15:00
4:45 PM,77.0,51.8,41,30.18,6.2,North,9.2,-,N/A,,Partly Cloudy,360,2013-04-25 14:45:00
5:15 PM,77.0,55.4,47,30.18,6.2,NNE,5.8,-,N/A,,Partly Cloudy,20,2013-04-25 15:15:00
5:45 PM,75.2,57.2,53,30.18,6.2,NE,5.8,-,N/A,,Partly Cloudy,40,2013-04-25 15:45:00
6:15 PM,73.4,57.2,57,30.15,6.2,NNE,5.8,-,N/A,,Scattered Clouds,30,2013-04-25 16:15:00
6:45 PM,73.4,57.2,57,30.15,6.2,NE,4.6,-,N/A,,Scattered Clouds,50,2013-04-25 16:45:00
7:15 PM,73.4,55.4,53,30.15,6.2,NNW,2.3,-,N/A,,Scattered Clouds,340,2013-04-25 17:15:00
7:45 PM,71.6,55.4,57,30.15,6.2,WSW,1.2,-,N/A,,Scattered Clouds,250,2013-04-25 17:45:00
8:15 PM,68.0,55.4,64,30.15,6.2,WSW,2.3,-,N/A,,Scattered Clouds,240,2013-04-25 18:15:00
8:45 PM,68.0,55.4,64,30.15,6.2,North,1.2,-,N/A,,Scattered Clouds,360,2013-04-25 18:45:00
9:15 PM,68.0,57.2,68,30.15,6.2,WSW,2.3,-,N/A,,Scattered Clouds,240,2013-04-25 19:15:00
9:45 PM,64.4,57.2,77,30.12,6.2,East,4.6,-,N/A,,Mostly Cloudy,80,2013-04-25 19:45:00
10:15 PM,64.4,55.4,73,30.09,6.2,NE,5.8,-,N/A,,Scattered Clouds,50,2013-04-25 20:15:00
10:45 PM,64.4,55.4,73,30.09,6.2,NNW,1.2,-,N/A,,Scattered Clouds,330,2013-04-25 20:45:00
11:15 PM,64.4,57.2,77,30.09,6.2,West,3.5,-,N/A,,Scattered Clouds,270,2013-04-25 21:15:00
11:45 PM,62.6,57.2,82,30.12,6.2,WNW,2.3,-,N/A,,Scattered Clouds,300,2013-04-25 21:45:00